EW7214 Weather Reports


Display with metric or nautical units.
time (UTC)temp
F
wind
direction
speed
MPH
gust
MPH
rain 1hr
in
rain 24hr
in
rain mn
in
humidity
%
barometer
mb
20210922160123 79 197 2.0 4.0 0.00 0.49 0.00 40 1024.3
20210922155124 77 273 2.0 4.0 0.00 0.49 0.00 41 1024.2
20210922154124 78 251 2.0 4.0 0.00 0.49 0.00 40 1024.2
20210922153125 78 267 2.0 4.0 0.00 0.49 0.00 41 1024.0
20210922152124 77 303 2.0 7.0 0.00 0.49 0.00 43 1024.1
20210922151124 75 330 3.0 7.0 0.00 0.49 0.00 44 1024.0
20210922150125 74 324 2.0 5.0 0.00 0.49 0.00 45 1024.0
20210922145127 74 256 2.0 4.0 0.00 0.49 0.00 47 1023.9
20210922144126 74 174 2.0 5.0 0.00 0.49 0.00 48 1023.8
20210922143126 71 301 2.0 5.0 0.00 0.49 0.00 50 1023.7
20210922142123 70 24 1.0 4.0 0.00 0.49 0.00 52 1023.8
20210922141123 69 270 1.0 4.0 0.00 0.49 0.00 53 1023.6
20210922140123 68 45 2.0 4.0 0.00 0.49 0.00 54 1023.6
20210922135124 68 233 2.0 4.0 0.00 0.49 0.00 54 1023.6
20210922134123 67 121 2.0 3.0 0.00 0.49 0.00 55 1023.6
20210922133126 66 301 1.0 2.0 0.00 0.49 0.00 57 1023.5
20210922132127 66 338 1.0 4.0 0.00 0.49 0.00 58 1023.4
20210922131126 65 71 1.0 3.0 0.00 0.49 0.00 58 1023.6
20210922130124 65 341 1.0 2.0 0.00 0.49 0.00 59 1023.6
20210922125123 64 56 0.0 2.0 0.00 0.49 0.00 60 1023.5
20210922124123 64 52 1.0 2.0 0.00 0.49 0.00 58 1023.3
20210922123124 64 21 1.0 2.0 0.00 0.49 0.00 59 1023.3
20210922122124 64 13 1.0 2.0 0.00 0.49 0.00 59 1023.3
20210922121127 65 344 0.0 2.0 0.00 0.49 0.00 58 1023.1
20210922120127 65 270 0.0 0.0 0.00 0.49 0.00 58 1023.1
20210922115126 66 327 0.0 2.0 0.00 0.49 0.00 56 1023.1
20210922114123 66 259 1.0 2.0 0.00 0.49 0.00 56 1023.0
20210922113124 66 21 1.0 2.0 0.00 0.49 0.00 56 1022.9
20210922112123 67 279 1.0 3.0 0.00 0.49 0.00 54 1022.8
20210922111123 67 300 1.0 3.0 0.00 0.49 0.00 54 1022.8
20210922110123 67 127 1.0 3.0 0.00 0.49 0.00 54 1022.8
20210922105127 68 135 1.0 3.0 0.00 0.49 0.00 53 1022.8
20210922104126 68 331 1.0 3.0 0.00 0.49 0.00 53 1022.6
20210922103126 68 116 1.0 3.0 0.00 0.49 0.00 53 1022.7
20210922102123 68 331 1.0 4.0 0.00 0.49 0.00 52 1022.7
20210922101122 69 348 1.0 3.0 0.00 0.49 0.00 52 1022.6
20210922100123 69 123 1.0 3.0 0.00 0.49 0.00 52 1022.6
20210922095123 69 221 1.0 3.0 0.00 0.49 0.00 50 1022.6
20210922094124 70 57 1.0 4.0 0.00 0.49 0.00 50 1022.5
20210922093126 70 179 2.0 4.0 0.00 0.49 0.00 49 1022.3
20210922092126 70 349 2.0 4.0 0.00 0.49 0.00 48 1022.2
20210922091126 71 71 2.0 4.0 0.00 0.49 0.00 48 1022.0
20210922090124 71 201 2.0 4.0 0.00 0.49 0.00 48 1022.0
20210922085123 71 308 2.0 4.0 0.00 0.49 0.00 47 1021.9
20210922084123 71 335 2.0 5.0 0.00 0.49 0.00 47 1021.9
20210922083123 72 83 2.0 4.0 0.00 0.49 0.00 48 1021.7
20210922082123 72 177 2.0 5.0 0.00 0.49 0.00 48 1021.4
20210922081125 72 236 2.0 3.0 0.00 0.49 0.00 47 1021.3
20210922080126 72 3 2.0 4.0 0.00 0.49 0.00 47 1021.3
20210922075126 73 269 2.0 3.0 0.00 0.49 0.00 48 1021.2
20210922074123 73 350 3.0 5.0 0.00 0.49 0.00 47 1021.1
20210922073123 73 350 2.0 4.0 0.00 0.49 0.00 47 1020.8
20210922072122 73 305 2.0 5.0 0.00 0.49 0.00 47 1020.9
20210922071123 73 344 3.0 5.0 0.00 0.49 0.00 47 1021.0
20210922070123 74 317 3.0 5.0 0.00 0.49 0.00 47 1021.0
20210922065126 74 331 2.0 4.0 0.00 0.49 0.00 47 1021.0
20210922064126 74 308 1.0 3.0 0.00 0.49 0.00 47 1021.0
20210922063126 74 331 2.0 4.0 0.00 0.49 0.00 47 1020.9
20210922062123 74 35 2.0 3.0 0.00 0.49 0.00 47 1021.0
20210922061123 75 20 1.0 2.0 0.00 0.49 0.00 46 1021.1
20210922060123 75 323 1.0 4.0 0.00 0.49 0.00 45 1021.1
20210922055123 75 203 1.0 4.0 0.00 0.49 0.00 45 1021.2
20210922054123 76 42 1.0 3.0 0.00 0.49 0.00 46 1021.1
20210922053122 76 6 1.0 3.0 0.00 0.49 0.00 45 1021.2
20210922052126 76 306 2.0 3.0 0.00 0.49 0.00 44 1021.1
20210922051125 77 39 2.0 5.0 0.00 0.49 0.00 42 1021.3
20210922050123 77 108 1.0 3.0 0.00 0.49 0.00 41 1021.3
20210922045123 77 66 2.0 4.0 0.00 0.49 0.49 41 1021.1
20210922044123 77 304 2.0 3.0 0.00 0.49 0.49 41 1020.9
20210922043123 78 331 2.0 3.0 0.00 0.49 0.49 41 1020.7
20210922042123 78 90 2.0 4.0 0.00 0.49 0.49 42 1020.5
20210922041126 78 70 2.0 4.0 0.00 0.49 0.49 41 1020.4
20210922040126 78 278 2.0 5.0 0.00 0.49 0.49 42 1020.4
20210922035127 79 321 2.0 4.0 0.00 0.49 0.49 43 1020.1
20210922034125 79 25 3.0 5.0 0.00 0.49 0.49 43 1019.7
20210922033125 79 288 2.0 4.0 0.00 0.49 0.49 44 1019.3
20210922032125 79 21 3.0 4.0 0.00 0.49 0.49 44 1019.3
20210922031125 80 324 3.0 4.0 0.00 0.49 0.49 45 1019.1
20210922030124 80 326 2.0 4.0 0.00 0.49 0.49 45 1019.1
20210922025126 80 16 2.0 4.0 0.00 0.49 0.49 47 1019.0
20210922024126 80 313 2.0 4.0 0.00 0.49 0.49 45 1018.9
20210922023126 80 295 2.0 4.0 0.00 0.49 0.49 46 1019.0
20210922022125 81 5 2.0 3.0 0.00 0.49 0.49 45 1018.8
20210922021125 81 270 2.0 4.0 0.00 0.49 0.49 45 1018.5
20210922020125 82 330 2.0 3.0 0.00 0.49 0.49 45 1018.5
20210922015125 82 337 2.0 4.0 0.00 0.49 0.49 45 1018.4
20210922014125 82 314 2.0 5.0 0.00 0.49 0.49 46 1018.0
20210922013126 82 315 2.0 4.0 0.00 0.49 0.49 46 1017.8
20210922012126 82 359 2.0 4.0 0.00 0.49 0.49 47 1017.5
20210922011126 82 320 2.0 6.0 0.00 0.49 0.49 48 1017.3
20210922010125 83 41 2.0 3.0 0.00 0.49 0.49 50 1017.3
20210922005125 83 8 2.0 3.0 0.00 0.49 0.49 53 1017.0
20210922004125 83 11 3.0 5.0 0.00 0.49 0.49 53 1016.7
20210922003125 83 34 3.0 6.0 0.00 0.49 0.49 55 1016.6
20210922002126 84 11 3.0 6.0 0.00 0.49 0.49 57 1016.2
20210922001125 84 328 4.0 7.0 0.00 0.49 0.49 57 1016.3
20210922000126 84 340 3.0 5.0 0.00 0.49 0.49 59 1016.3
20210921235126 85 346 4.0 7.0 0.00 0.49 0.49 59 1016.0
20210921234125 86 315 3.0 4.0 0.00 0.49 0.49 61 1015.7
20210921233124 86 306 3.0 5.0 0.00 0.49 0.49 60 1015.5
20210921232125 87 270 0.0 0.0 0.00 0.49 0.49 67 1015.4
20210921231124 88 235 1.0 2.0 0.00 0.49 0.49 68 1015.4
20210921230125 88 170 0.0 3.0 0.00 0.49 0.49 68 1015.4
20210921225126 89 203 0.0 0.0 0.00 0.49 0.49 67 1015.3
20210921224127 89 42 1.0 3.0 0.00 0.49 0.49 67 1015.1
20210921223126 89 299 1.0 3.0 0.00 0.49 0.49 65 1015.0
20210921222124 89 314 1.0 2.0 0.00 0.49 0.49 68 1015.1
20210921221125 89 265 1.0 3.0 0.00 0.49 0.49 68 1015.0
20210921220125 88 274 1.0 3.0 0.00 0.49 0.49 70 1015.0
20210921215125 87 237 1.0 3.0 0.00 0.49 0.49 72 1014.8
20210921214124 87 229 1.0 2.0 0.00 0.49 0.49 74 1014.8
20210921213125 86 262 1.0 4.0 0.00 0.49 0.49 76 1014.8
20210921212125 85 252 0.0 2.0 0.00 0.49 0.49 86 1014.7
20210921211127 85 270 0.0 0.0 0.00 0.49 0.49 87 1014.9
20210921210125 84 248 0.0 0.0 0.00 0.49 0.49 89 1014.9
20210921205124 85 248 0.0 0.0 0.10 0.49 0.49 86 1014.8
20210921204125 84 248 0.0 0.0 0.49 0.49 0.49 88 1015.0
20210921203125 81 203 0.0 0.0 0.49 0.49 0.49 94 1015.0
20210921202125 82 203 0.0 0.0 0.49 0.49 0.49 87 1014.8
20210921201124 81 203 0.0 0.0 0.49 0.49 0.49 90 1015.1
20210921200124 80 151 1.0 4.0 0.49 0.49 0.49 84 1015.1
20210921195128 78 68 5.0 7.0 0.41 0.41 0.41 81 1016.9
20210921194125 88 12 2.0 6.0 0.00 0.00 0.00 74 1015.7
20210921193124 93 186 1.0 3.0 0.00 0.00 0.00 68 1015.5
20210921192124 91 173 0.0 2.0 0.00 0.00 0.00 73 1015.6
20210921191125 90 180 0.0 1.0 0.00 0.00 0.00 75 1015.5
20210921190124 91 205 0.0 2.0 0.00 0.00 0.00 69 1015.5
20210921185124 90 355 0.0 2.0 0.00 0.00 0.00 70 1015.7
20210921184125 91 315 0.0 2.0 0.00 0.00 0.00 69 1015.8
20210921183124 90 135 0.0 0.0 0.00 0.00 0.00 69 1015.9
20210921182124 91 326 1.0 3.0 0.00 0.00 0.00 69 1015.8
20210921181124 90 326 1.0 3.0 0.00 0.00 0.00 72 1016.1
20210921180125 90 188 0.0 2.0 0.00 0.00 0.00 73 1016.1
20210921175124 90 270 0.0 0.0 0.00 0.00 0.00 71 1016.2
20210921174124 89 225 0.0 0.0 0.00 0.00 0.00 71 1016.3
20210921173124 90 225 0.0 0.0 0.00 0.00 0.00 70 1016.3
20210921172124 89 225 0.0 0.0 0.00 0.00 0.00 70 1016.2
20210921171125 89 293 0.0 0.0 0.00 0.00 0.00 72 1016.0
20210921170125 88 272 1.0 3.0 0.00 0.00 0.00 73 1016.0
20210921165124 88 340 1.0 3.0 0.00 0.00 0.00 73 1016.2
20210921164124 88 358 1.0 4.0 0.00 0.00 0.00 72 1016.0
20210921163124 88 20 1.0 4.0 0.00 0.00 0.00 72 1015.9
20210921162125 88 294 1.0 4.0 0.00 0.00 0.00 72 1015.9
20210921161124 87 300 2.0 4.0 0.00 0.00 0.00 74 1015.7